New York, NY

12:35 PM EST on November 22, 2019 (GMT -0500)
La Guardia

Weather History for KLGA - August, 2019

Change the Weather History Date:

Friday, August 23, 2019

  Actual Average Record
Temperature  
Mean Temperature 71 °F 76 °F  
Max Temperature 76 °F 83 °F 92 °F (1996)
Min Temperature 66 °F 68 °F 56 °F (1952)
Degree Days  
Heating Degree Days 0 0  
Month to date heating degree days 0 0  
Since 1 June heating degree days 4 16  
Since 1 July heating degree days 0 0  
Cooling Degree Days 6 11  
Month to date cooling degree days 335 273  
Year to date cooling degree days 1160 955  
Since 1 June cooling degree days 1098 889  
Growing Degree Days 20 (Base 50)    
Moisture  
Dew Point 61 °F    
Average Humidity 68    
Maximum Humidity 87    
Minimum Humidity 49    
Precipitation  
Precipitation 0.06 in 0.14 in 1.96 in (1970)
Month to date precipitation 3.04 3.18  
Year to date precipitation 35.74 29.31  
Snow  
Snow 0.00 in 0.00 in - ()
Month to date snowfall 0.0 0.0  
Since 1 July snowfall 0.0 0.0  
Snow Depth 0.00 in    
Sea Level Pressure  
Sea Level Pressure 29.97 in    
Wind  
Wind Speed 8 mph (North)    
Max Wind Speed 15 mph    
Max Gust Speed 21 mph    
Visibility 9 miles    
Events Rain , Thunderstorm    
T = Trace of Precipitation, MM = Missing Value Source: NWS Daily Summary

Daily Weather History Graph

Daily Weather History Graph

Search for Another Location

Airport or City:

Astronomy

Aug. 23, 2019 Rise Set
Actual Time 6:13 AM EDT 7:42 PM EDT
Civil Twilight 5:44 AM EDT 8:10 PM EDT
Nautical Twilight 5:09 AM EDT 8:45 PM EDT
Astronomical Twilight 4:33 AM EDT 9:22 PM EDT
Moon No Moon Rise 1:50 PM EDT (8/23)
Length of Visible Light 14h 26m
Length of Day
13h 28m
Waning Gibbous, 50% of the Moon is Illuminated
Aug 23
Waning Gibbous
Aug 30
New
Sep 5
First Quarter
Sep 14
Full
Sep 21
Last Quarter

Hourly Weather History & Observations

Time (EDT) Temp. Dew Point Humidity Pressure Visibility Wind Dir Wind Speed Gust Speed Precip Events Conditions
12:03 AM 73.9 °F 69.1 °F 85% 29.90 in 8.0 mi SSW 4.6 mph - 0.15 in Rain Light Rain
12:24 AM 73.9 °F 70.0 °F 87% 29.92 in 5.0 mi West 9.2 mph - 0.16 in Rain , Thunderstorm Light Rain
12:25 AM 73.9 °F 70.0 °F 87% 29.91 in 1.5 mi WSW 9.2 mph - 0.17 in Rain , Thunderstorm Heavy Rain
12:37 AM 73.9 °F 70.0 °F 87% 29.90 in 6.0 mi South 6.9 mph - 0.28 in Rain Light Rain
12:51 AM 73.9 °F 70.0 °F 87% 29.91 in 10.0 mi Calm Calm - 0.29 in Rain Light Rain
1:04 AM 73.9 °F 70.0 °F 87% 29.91 in 10.0 mi West 4.6 mph - 0.00 in   Overcast
1:51 AM 73.9 °F 70.0 °F 87% 29.91 in 10.0 mi West 6.9 mph - 0.00 in   Mostly Cloudy
2:51 AM 75.0 °F 69.1 °F 82% 29.90 in 10.0 mi NW 9.2 mph - N/A   Mostly Cloudy
3:51 AM 73.9 °F 66.0 °F 76% 29.89 in 10.0 mi NW 12.7 mph - N/A   Scattered Clouds
4:51 AM 73.0 °F 66.0 °F 79% 29.92 in 10.0 mi North 10.4 mph - 0.00 in Rain Light Rain
5:51 AM 71.1 °F 63.0 °F 75% 29.95 in 10.0 mi NNE 6.9 mph - 0.00 in Rain Light Rain
6:51 AM 70.0 °F 62.1 °F 76% 29.97 in 10.0 mi NE 9.2 mph - 0.00 in   Overcast
7:51 AM 70.0 °F 60.1 °F 71% 30.00 in 10.0 mi NNE 9.2 mph - N/A   Overcast
8:51 AM 68.0 °F 57.9 °F 70% 30.01 in 10.0 mi NNE 11.5 mph - 0.01 in Rain Light Rain
9:51 AM 66.9 °F 59.0 °F 76% 30.02 in 9.0 mi Variable 5.8 mph - 0.04 in Rain Light Rain
10:51 AM 66.9 °F 57.0 °F 70% 30.01 in 10.0 mi NE 5.8 mph - 0.01 in Rain Light Rain
11:51 AM 70.0 °F 59.0 °F 68% 30.01 in 10.0 mi NE 4.6 mph - 0.00 in   Overcast
12:51 PM 73.0 °F 57.0 °F 57% 30.00 in 10.0 mi North 5.8 mph - N/A   Overcast
1:51 PM 73.0 °F 59.0 °F 61% 29.99 in 10.0 mi NNW 6.9 mph - N/A   Overcast
2:51 PM 73.9 °F 60.1 °F 62% 29.99 in 10.0 mi North 5.8 mph - N/A   Overcast
3:51 PM 75.0 °F 57.9 °F 55% 29.99 in 10.0 mi NNE 9.2 mph - N/A   Overcast
4:51 PM 75.0 °F 55.9 °F 51% 29.99 in 10.0 mi North 10.4 mph - N/A   Overcast
5:51 PM 75.0 °F 55.9 °F 51% 29.98 in 10.0 mi North 8.1 mph - N/A   Overcast
6:51 PM 75.0 °F 55.9 °F 51% 29.99 in 10.0 mi NNE 6.9 mph - N/A   Mostly Cloudy
7:51 PM 73.9 °F 53.1 °F 48% 30.00 in 10.0 mi North 8.1 mph - N/A   Mostly Cloudy
8:51 PM 73.0 °F 53.1 °F 49% 30.01 in 10.0 mi North 5.8 mph - N/A   Mostly Cloudy
9:51 PM 72.0 °F 54.0 °F 53% 30.02 in 10.0 mi North 5.8 mph - N/A   Partly Cloudy
10:51 PM 72.0 °F 57.0 °F 59% 30.04 in 10.0 mi NNW 6.9 mph - N/A   Partly Cloudy
11:51 PM 71.1 °F 57.9 °F 63% 30.05 in 10.0 mi NNW 5.8 mph - N/A   Partly Cloudy